Ketchikan, AK

4:25 AM AKDT on August 15, 2018 (GMT -0800)
Ketchikan International

Weather History for PAKT - April, 2018

Change the Weather History Date:

Monday, April 23, 2018

  Actual Average Record
Temperature  
Mean Temperature 44 °F -  
Max Temperature 48 °F 51 °F 69 °F (1997)
Min Temperature 42 °F 36 °F 28 °F (2002)
Degree Days  
Heating Degree Days 21    
Moisture  
Dew Point 41 °F    
Average Humidity 86    
Maximum Humidity 96    
Minimum Humidity 66    
Precipitation  
Precipitation 0.73 in - - ()
Sea Level Pressure  
Sea Level Pressure 30.25 in    
Wind  
Wind Speed 16 mph (SE)    
Max Wind Speed 23 mph    
Max Gust Speed 33 mph    
Visibility 5 miles    
Events Rain    
Averages and records for this station are not official NWS values.
T = Trace of Precipitation, MM = Missing Value Source: NWS Daily Summary

Daily Weather History Graph

Daily Weather History Graph

Search for Another Location

Airport or City:

Astronomy

Apr. 23, 2018 Rise Set
Actual Time 5:23 AM AKDT 8:08 PM AKDT
Civil Twilight 4:41 AM AKDT 8:49 PM AKDT
Nautical Twilight 3:47 AM AKDT 9:44 PM AKDT
Astronomical Twilight 2:38 AM AKDT 10:55 PM AKDT
Moon 12:13 PM AKDT (4/23) 3:20 AM AKDT (4/23)
Length of Visible Light 16h 08m
Length of Day
14h 45m
First Quarter, 60% of the Moon is Illuminated
Apr 23
First Quarter
Apr 29
Full
May 7
Last Quarter
May 15
New
May 21
First Quarter

Hourly Weather History & Observations

Time (AKDT) Temp. Windchill Dew Point Humidity Pressure Visibility Wind Dir Wind Speed Gust Speed Precip Events Conditions
12:53 AM 46.0 °F 40.6 °F 37.9 °F 73% 30.23 in 10.0 mi SSE 11.5 mph 20.7 mph 0.00 in   Overcast
1:53 AM 46.9 °F - 37.9 °F 71% 30.23 in 10.0 mi SE 17.3 mph - N/A   Overcast
2:53 AM 46.4 °F 39.8 °F 37.4 °F 71% 30.21 in 10.0 mi SE 16.1 mph 24.2 mph N/A   Overcast
3:53 AM 46.9 °F - 37.0 °F 68% 30.21 in 10.0 mi SE 17.3 mph - N/A   Overcast
4:53 AM 46.9 °F - 36.0 °F 66% 30.21 in 10.0 mi SE 23.0 mph 32.2 mph 0.00 in Rain Light Rain
5:41 AM 44.1 °F 36.8 °F 39.0 °F 82% 30.22 in 5.0 mi SSE 16.1 mph 25.3 mph 0.02 in Rain Light Rain
5:53 AM 44.1 °F 35.4 °F 39.0 °F 82% 30.23 in 6.0 mi SSE 21.9 mph 29.9 mph 0.03 in Rain Light Rain
6:09 AM 44.6 °F 36.9 °F 39.2 °F 81% 30.23 in 4.0 mi SSE 18.4 mph 25.3 mph N/A Rain Light Rain
6:53 AM 42.8 °F 35.8 °F 39.2 °F 87% 30.23 in 3.0 mi SE 13.8 mph - N/A Rain Light Rain
7:53 AM 42.8 °F 34.5 °F 39.2 °F 87% 30.24 in 3.0 mi SE 18.4 mph - N/A Rain Rain
8:53 AM 42.8 °F 34.8 °F 39.2 °F 87% 30.24 in 3.0 mi SE 17.3 mph 28.8 mph N/A Rain Rain
9:53 AM 42.8 °F 36.2 °F 41.0 °F 93% 30.25 in 3.0 mi SSE 12.7 mph 25.3 mph N/A Rain Rain
10:53 AM 42.8 °F 35.4 °F 41.0 °F 93% 30.25 in 3.0 mi SE 15.0 mph 24.2 mph N/A Rain Rain
11:53 AM 44.6 °F 37.4 °F 42.8 °F 93% 30.25 in 3.0 mi SE 16.1 mph 23.0 mph N/A Rain Rain
12:53 PM 44.6 °F 36.6 °F 42.8 °F 93% 30.26 in 3.0 mi SE 19.6 mph 29.9 mph N/A Rain Rain
1:53 PM 44.6 °F 36.4 °F 41.0 °F 87% 30.26 in 3.0 mi SE 20.7 mph 33.4 mph N/A Rain Rain
2:53 PM 44.6 °F 37.2 °F 41.0 °F 87% 30.25 in 3.0 mi SE 17.3 mph 29.9 mph N/A Rain Rain
3:53 PM 44.6 °F 38.8 °F 42.8 °F 93% 30.24 in 3.0 mi SSE 11.5 mph 21.9 mph N/A Rain Rain
4:53 PM 44.6 °F 36.9 °F 42.8 °F 93% 30.25 in 3.0 mi SE 18.4 mph 31.1 mph N/A Rain Rain
5:53 PM 44.6 °F 37.4 °F 42.8 °F 93% 30.25 in 3.0 mi SE 16.1 mph - N/A Rain Rain
6:53 PM 44.1 °F 38.6 °F 39.9 °F 85% 30.24 in 3.0 mi SSE 10.4 mph - 0.22 in Rain Rain
7:53 PM 44.1 °F 37.7 °F 42.1 °F 93% 30.25 in 3.0 mi SE 12.7 mph - 0.22 in Rain Light Rain
8:53 PM 45.0 °F 38.9 °F 43.0 °F 93% 30.27 in 4.0 mi SE 12.7 mph - 0.12 in Rain Light Rain
9:20 PM 45.0 °F 38.2 °F 43.0 °F 93% 30.27 in 4.0 mi SE 15.0 mph - 0.03 in Rain Light Rain
9:53 PM 44.1 °F 37.4 °F 42.1 °F 93% 30.28 in 5.0 mi SE 13.8 mph - 0.05 in Rain Light Rain
10:53 PM 44.1 °F 38.6 °F 42.1 °F 93% 30.29 in 2.5 mi SE 10.4 mph - 0.03 in Rain Light Rain
11:53 PM 44.1 °F 39.0 °F 43.0 °F 96% 30.30 in 2.0 mi SE 9.2 mph - 0.06 in Rain Light Rain